If you wish to contribute or participate in the discussions about articles you are invited to join SKYbrary as a registered user

 Actions

Burgos Airport

From SKYbrary Wiki

LEBG
Airport
ICAO: LEBG – IATA: RGS
Summary
Name Burgos Airport
Region Europe
Territory Spain ES.gif
Location , Castilla y Leon
Serving Burgos
Elevation 897.636 m
2,945 ft
2,945 ft897.636 m
Type medium airport
Coordinates 42° 21' 27.46" N, 3° 37' 14.75" W
Runways
Designator Length Width Surface ROPS
6/24 1339 m4,393.045 ft
30 m98.425 ft
ASP /


METAR
Observation LEBG 250700Z 18007KT 9999 FEW065 06/02 Q1020
Station Burgos / Villafria
Date/Time 25 February 2020 07:00:00
Wind direction 180°
Wind speed 07 kts
Lowest cloud amount few clouds
Temperature 6°C
Dew point 2°C
Humidity 75%
QNH 1020 hPa
Weather condition n/a